Forside
METAR-TAF:

METAR-TAF

Lufthavne :

Dodge County Airport

Juneau, Wisconsin, USA

Breddekreds: 43-25-36N, længdekreds: 088-42-12W, højde: 285 m

Aktuelle vejr

Denne rapport blev lavet for 14 minutter siden, kl. 14:15 UTC
Vind stille
Temperatur 9°C
Fugtighed 100%
Tryk 1008 hPa
Overskyet i en højde af 200 ft
tåge

METAR: KUNU 081415Z AUTO 00000KT M1/4SM FG OVC002 09/09 A2977 RMK AO2 T00880088

Tid: 09:29 (14:29 UTC)


TAF: fraværende

Vejrobservationer og prognoser fra mere end 4000 lufthavne (METAR og TAF).

De gule og røde prikker repræsenterer de meteorologiske stationer.

Flyt musen over at se navnet på stationen.

Så klik over at se vejr observationer og prognoser.

At skifte det kort: Klik på de grønne knapper med et sort kors for at zoome ind; på den grønne knap med en bindestreg for at zoome ud; eller på de grønne pile for tilstødende kort.


METAR-TAF: